Zurück zum Katalog

OPS 5114

NAVSTAR 4

AktivNavigationMEO
NORAD 11141·PAYLOAD·🇺🇸 United States

Gestartet Dec 11, 1978 von Vandenberg Space Force Base

Loading…

Nächste Überflüge (nächste 24 Stunden)

TLE

AktuellSource: Space-Track

Epoche: Sep 12, 2026, 03:46 UTC

1 11141U 78112A   26255.15714777 -.00000004  00000-0  00000-0 0  9991
2 11141  63.7688  69.6222 0146273  51.2487 311.9277  1.92895502230775

Verfolge OPS 5114 in Echtzeit mit AllMySat

Download on the App Store